Overview Statistics Trail Chart Weather Telemetry Raw packets
 

This is the latest recevied weather packets stored in our database for station/object G4WLC-1. If no packets are shown the sender has not sent any weather packets the latest 10 day(s).

<< 4 5 6 7 8 9 10 >>
Time Temp. Humidity Pressure Rain* Wind** Luminosity Snow
1788625318 19.44° C 66% 1024.9 hPa 0 mm - - -
1788625018 19.44° C 66% 1025 hPa 0 mm - - -
1788624718 19.44° C 66% 1025.1 hPa 0 mm - - -
1788624418 19.44° C 66% 1024.9 hPa 0 mm - - -
1788624118 20° C 66% 1025 hPa 0 mm - - -
1788623819 20° C 64% 1024.9 hPa 0 mm - - -
1788623519 20° C 65% 1025 hPa 0 mm - - -
1788623219 20° C 65% 1025.2 hPa 0 mm - - -
1788622919 20° C 66% 1025 hPa 0 mm - - -
1788622619 20° C 65% 1024.8 hPa 0 mm - - -
1788622319 20° C 65% 1024.9 hPa 0 mm - - -
1788622019 20° C 66% 1024.9 hPa 0 mm - - -
1788621719 20° C 65% 1025 hPa 0 mm - - -
1788621419 20° C 65% 1025.1 hPa 0 mm - - -
1788621119 20° C 65% 1025.3 hPa 0 mm - - -
1788620819 19.44° C 68% 1025.2 hPa 0 mm - - -
1788620519 19.44° C 66% 1025.2 hPa 0 mm - - -
1788620219 19.44° C 68% 1025.1 hPa 0 mm - - -
1788619919 19.44° C 67% 1025.2 hPa 0 mm - - -
1788619619 19.44° C 65% 1025.2 hPa 0 mm - - -
1788619319 20° C 65% 1025.2 hPa 0 mm - - -
1788619019 19.44° C 66% 1025.2 hPa 0 mm - - -
1788618719 20° C 66% 1025.3 hPa 0 mm - - -
1788618419 19.44° C 65% 1025.3 hPa 0 mm - - -
1788618119 19.44° C 67% 1025.4 hPa 0 mm - - -

* Rain latest hour (hover to see other rain measurements)
** Current wind speed in m/s (hover to see current wind gust speed)